Regional Weather Roundup
Issued by NWS

Home | Current Version | Previous Version | Graphics & Text | Print | Product List | Glossary Off
Versions: 1 2 3 4 5 6 7 8 9 10 11 12 13 14 15 16 17 18 19 20 21 22 23 24 25 26 27 28 29 30 31 32 33 34 35 36 37 38 39 40 41 42 43 44 45 46 47 48 49 50

000
ASUS43 KDTX 240310
RWRMI
MICHIGAN HOURLY REGIONAL WEATHER ROUNDUP
NATIONAL WEATHER SERVICE DETROIT/PONTIAC MI
1000 PM EST SUN NOV 23 2014

NOTE: "FAIR" INDICATES FEW OR NO CLOUDS BELOW 12,000 FEET WITH NO
SIGNIFICANT WEATHER AND/OR OBSTRUCTION TO VISIBILITY.

MIZ047>049-052>055-059>063-066>070-074>076-081>083-240400-
SOUTHEAST LOWER MICHIGAN

CITY           SKY/WX    TMP DP  RH WIND       PRES   REMARKS
ADRIAN         RAIN      50  49  96 SE13G22   29.33F FOG
ALMA           RAIN      48  47  98 E8        29.35F
ANN ARBOR      RAIN      49  47  93 SE13      29.36F FOG
BAD AXE        LGT RAIN  47  45  94 SE9       29.46F
DETROIT CITY   RAIN      50  47  89 SE12      29.41F FOG
DETROIT        RAIN      51  49  92 SE13G18   29.40F FOG
FLINT          RAIN      52  48  86 SE16      29.38F FOG
GROSSE ILE     HVY RAIN  52  48  87 E17       29.37F
HILLSDALE      HVY RAIN  50  50 100 SE14G20   29.30F
HOWELL         LGT RAIN  48  47  97 SE16      29.35F

CITY           SKY/WX    TMP DP  RH WIND       PRES   REMARKS
JACKSON        LGT RAIN  49  47  93 SE13      29.31F
LAMBERTVILLE   RAIN      52  50  93 SE13      29.35F
LANSING        RAIN      49  47  93 SE14      29.33F FOG
LAPEER         NOT AVBL
MASON          RAIN      49  48  93 SE13G18   29.32F
MONROE         LGT RAIN  46  46 100 E12G17    29.36F
MT. CLEMENS    RAIN      48  48 100 E18       29.40F FOG
PONTIAC        RAIN      48  45  89 E14       29.38F FOG
PORT HOPE        N/A     46  42  86 SE7       29.47F
PORT HURON     HVY RAIN  50  48  93 SE15G21   29.46F
YPSILANTI      RAIN      54  48  80 SE16      29.38F
$$
MIZ043>046-050>051-056>058-064>065-071>073-077>080-240400-
SOUTHWEST LOWER MICHIGAN

CITY           SKY/WX    TMP DP  RH WIND       PRES   REMARKS
BATTLE CREEK   LGT RAIN  52  47  83 SE12      29.29F
BENTON HARBOR  LGT RAIN  50  49  96 E10       29.23F FOG
BIG RAPIDS     MIX PCPN  48  48 100 E6        29.33F
COLDWATER      RAIN      51  50  96 SE13G24   29.27F
HOLLAND        LGT RAIN  51  50  96 E9        29.26F
GRAND RAPIDS   HVY RAIN  50  48  93 SE8       29.30F FOG
KALAMAZOO      LGT RAIN  50  48  93 SE8       29.26F FOG
MARSHALL       LGT RAIN  49  47  95 SE10G18   29.29F
MUSKEGON       RAIN      51  48  89 SE13      29.26F
$$
MIZ016>042-240400-
NORTHERN LOWER MICHIGAN

CITY           SKY/WX    TMP DP  RH WIND       PRES   REMARKS
ALPENA         LGT RAIN  45  43  93 E7        29.48F FOG
BEAVER ISLAND  DRIZZLE   47  46  97 SE7       29.38F
BELLAIRE       LGT RAIN  44  43  95 CALM      29.38F
CADILLAC       LGT RAIN  46  46  98 E10       29.34F
CHARLEVOIX     LGT RAIN  44  44 100 E7        29.41F
FRANKFORT      RAIN      47  47  97 SE5       29.33F
GAYLORD        LGT RAIN  42  42 100 SE8       29.41F FOG
GRAYLING       RAIN      47  47 100 SE10      29.41F
HARBOR SPRINGS RAIN      43  43  99 E7        29.41F
HOUGHTON LAKE  RAIN      46  45  96 E12       29.39F FOG
MANISTEE       CLOUDY    46  45  93 E8        29.32F
OSCODA         RAIN      44  44 100 E6        29.47F
PELLSTON       LGT RAIN  42  42 100 SE8       29.42F VSB 1/4
TRAVERSE CITY  LGT RAIN  48  45  89 E5        29.35F FOG
$$
MIZ007>008-015-240400-
EASTERN UPPER MICHIGAN

CITY           SKY/WX    TMP DP  RH WIND       PRES   REMARKS
KINROSS        CLOUDY    43  43 100 SE12      29.43F VSB 3/4
MACKINAC ISLAN MIX PCPN  46  46 100 SE8       29.42F
NEWBERRY       LGT RAIN  42  42 100 S7        29.39F VSB 1
S. S. MARIE    LGT RAIN  41  40  96 E8        29.44F VSB 1/4
$$
MIZ004>006-011>014-085-240400-
CENTRAL UPPER MICHIGAN

CITY           SKY/WX    TMP DP  RH WIND       PRES   REMARKS
MANISTIQUE     RAIN      41  41 100 E6        29.36F VSB 1/4
ESCANABA       CLOUDY    43  39  87 SE5       29.33F VSB 3/4
MENOMINEE      CLOUDY    45  43  93 S6        29.30F
SAWYER-GWINN   DRIZZLE   39  37  93 SE7       29.33F
$$
MIZ001>003-009>011-084-240400-
WESTERN UPPER MICHIGAN

CITY           SKY/WX    TMP DP  RH WIND       PRES   REMARKS
IRON MOUNTAIN  FOG       40  39  97 CALM      29.29F VSB 3/4
HOUGHTON       LGT RAIN  41  40  96 E6        29.30F VSB 1/4
COPPER HARBOR    N/A     42  40  92 SW8       29.31F
IRONWOOD       CLOUDY    41  41 100 CALM      29.26F VSB 1/2
$$

ABBREVIATIONS USED IN REMARKS
   TC - TEMPERATURE IN CELSIUS
  WCI - WIND CHILL INDEX
   HX - HEAT INDEX
  VSB - VISIBILITY




USA.gov is the U.S. government's official web portal to all federal, state and local government web resources and services.